www.pogodaiklimat.ru

Погода и климат >> Архив погоды >> Индонезия >> Роти


ПОГОДА на Роти

  • Прогноз погоды на Роти
  • Монитор погоды на Роти

АРХИВ ПОГОДЫ на Роти

Время (UTC), дата Ветер
(напр.,м/с)
 
Видим.   Явления Облачность Т
(С)
Тd
(С)
f
(%)
Тe
(С)
Тes
(С)
Комфортность P
(гПа)
Po
(гПа)
Тmin
(С)
Tmax
(С)
R
(мм)
R24
(мм)
S
(см)
21 16.08 ЮВ 2 10 км 3/3 600 м
[Cu hum Ci fib]
+21.2 +19.1 88 +26 +26 душно 1019.6 998.5
00 17.08 В 4 н/о н/о +25.1 +19.7 72 +31 +31 очень
душно
1021.3 1000.1 +23.1 +28.0
03 17.08 ЮВ 4 н/о н/о +26.4 +19.6 66 +32 +32 очень
душно
1020.8 999.7
06 17.08 ЮВ 5 н/о н/о +27.0 +19.4 63 +33 +33 очень
душно
1019.0 997.9
09 17.08 Ю 5 10 км 4/4 600 м
[Cu hum Ci fib]
+25.4 +19.1 68 +30 +31 душно 1019.3 998.2
12 17.08 Ю 3 н/о н/о +23.2 +19.5 80 +30 +30 очень
душно
1021.2 1000.0 +31.2
15 17.08 ЮВ 3 н/о н/о +23.3 +19.7 80 +30 +30 очень
душно
1021.2 1000.1
18 17.08 Ю 2 н/о н/о +21.8 +18.7 83 +27 +27 душно 1019.6 998.5
21 17.08 ЮВ 1 н/о н/о +20.3 +18.9 92 +25 +25 комфорт 1019.1 998.0
00 18.08 ЮВ 4 н/о н/о +25.1 +18.7 68 +30 +30 душно 1020.8 999.6 +23.1 +28.0
03 18.08 ЮВ 4 н/о н/о +27.6 +16.5 51 +31 +31 душно 1020.0 998.9
06 18.08 ЮВ 4 н/о н/о +27.6 +17.1 53 +32 +32 очень
душно
1017.7 996.6
09 18.08 Ю 5 н/о н/о +26.2 +16.2 54 +30 +30 душно 1017.4 996.4
12 18.08 Ю 3 10 км 1/1 600 м
[Cu hum Ci fib]
+23.8 +20.4 81 +29 +29 душно 1019.7 998.6 +31.4
15 18.08 ЮВ 3 н/о н/о +23.2 +20.7 86 +31 +31 очень
душно
1020.2 999.0
18 18.08 ЮВ 2 н/о н/о +22.0 +20.6 92 +28 +28 душно 1019.1 998.0
21 18.08 ЮВ 3 н/о н/о +22.2 +20.7 91 +29 +29 очень
душно
1019.1 998.0
00 19.08 Ю 3 10 км 3/1 600 м
[Cu hum Ci fib]
+25.8 +21.8 79 +33 +37 очень
душно
1020.1 999.0 +20.8
03 19.08 Ю 4 10 км 1/1 600 м
[Cu hum Ci fib]
+30.0 +16.9 45 +34 +44 очень
душно
1019.6 998.6
06 19.08 ЮВ 6 н/о н/о +28.0 +18.2 55 +33 +33 очень
душно
1017.0 995.9
09 19.08 ЮВ 5 н/о н/о +26.6 +20.1 68 +33 +33 очень
душно
1017.4 996.4
12 19.08 ЮВ 4 10 км 1/1 600 м
[Cu hum Ci fib]
+24.6 +20.6 78 +31 +31 очень
душно
1019.8 998.7 +31.4
15 19.08 ЮВ 2 н/о н/о +22.8 +19.8 83 +29 +29 очень
душно
1020.0 998.9
18 19.08 ЮВ 3 н/о н/о +22.8 +20.0 84 +29 +29 очень
душно
1019.0 997.9
21 19.08 ЮВ 3 10 км 4/3 600 м
[Cu hum Ci fib]
+22.2 +20.5 90 +29 +29 очень
душно
1019.1 998.0
00 20.08 ЮВ 5 н/о н/о +25.8 +19.8 69 +31 +31 очень
душно
1020.9 999.7 +24.3 +29.5
03 20.08 В 6 н/о н/о +29.2 +18.2 52 +34 +40 очень
душно
1020.2 999.1
06 20.08 ЮВ 7 10 км 4/4 600 м
[Cu hum Ci fib]
+28.4 +19.5 59 +34 +37 очень
душно
1017.9 996.8
09 20.08 ЮВ 6 н/о н/о +27.0 +19.6 64 +33 +33 очень
душно
1017.7 996.7
12 20.08 В 3 н/о н/о +24.0 +19.4 75 +29 +29 душно 1019.5 998.3
15 20.08 В 4 н/о н/о +24.6 +20.7 79 +31 +31 очень
душно
1019.9 998.8
18 20.08 В 3 н/о н/о +23.8 +20.2 80 +29 +29 душно 1018.6 997.5
21 20.08 В 4 10 км 4/3 600 м
[Cu hum Ci fib]
+23.6 +19.5 78 +29 +29 душно 1019.1 998.0
00 21.08 В 8 н/о н/о +26.0 +18.4 63 +31 +31 очень
душно
1020.5 999.4 +23.4 +29.9
03 21.08 В 7 н/о н/о +26.9 +17.3 56 +31 +31 душно 1019.1 997.9
06 21.08 В 8 н/о н/о +27.4 +17.2 54 +31 +32 душно 1016.7 996.8
09 21.08 В 8 10 км 9/5 600 м
[Cu hum Ci fib]
+25.8 +18.9 66 +31 +31 очень
душно
1016.1 995.1
12 21.08 В 6 10 км 5/4 600 м
[Cu hum Ci fib]
+24.6 +19.2 72 +30 +30 очень
душно
1018.8 997.8 +29.0
15 21.08 В 6 10 км 5/4 600 м
[Cu hum Ci fib]
+23.6 +18.6 74 +28 +28 душно 1019.9 998.8
18 21.08 В 2 10 км 3/1 600 м
[Cu hum Ci fib]
+22.8 +17.9 74 +28 +28 душно 1019.8 998.7
21 21.08 В 3 10 км 3/1 600 м
[Cu hum Ci fib]
+22.4 +17.9 76 +27 +27 душно 1019.9 998.8
00 22.08 В 6 10 км 4/4 600 м
[Cu hum Ci fib]
+25.6 +17.9 62 +30 +31 душно 1021.1 1000.0 +22.0
03 22.08 В 8 10 км 5/5 600 м
[Cu hum Ci fib]
+28.0 +17.9 54 +32 +34 душно 1020.4 999.3
06 22.08 ЮВ 7 10 км 5/4 600 м
[Cu hum Ci fib]
+28.0 +17.1 52 +32 +34 душно 1018.4 997.3
09 22.08 ЮВ 7 10 км 1/1 600 м
[Cu hum Ci fib]
+25.8 +17.8 61 +30 +30 душно 1018.7 997.6
12 22.08 ЮВ 3 10 км 1/1 30 м
[Cu hum Ci fib]
+24.0 +17.9 69 +28 +28 душно 1020.8 999.7 +29.2
15 22.08 В 3 10 км 1/1 600 м
[Cu hum Ci fib]
+23.8 +18.7 73 +28 +28 душно 1021.0 999.9
18 22.08 ЮВ 6 10 км 1/1 600 м
[Cu hum Ci fib]
+23.2 +18.7 76 +29 +29 душно 1019.9 998.8
21 22.08 В 3 10 км 1/1 600 м
[Cu hum Ci fib]
+21.8 +18.2 80 +27 +27 душно 1019.9 998.8
00 23.08 В 3 10 км 1/1 600 м
[Cu hum Ci fib]
+26.0 +19.5 67 +31 +36 очень
душно
1021.2 1000.0 +20.8
03 23.08 В 5 н/о н/о +27.6 +18.1 56 +32 +32 очень
душно
1020.1 998.9
06 23.08 ЮВ 6 н/о н/о +28.4 +19.5 59 +34 +37 очень
душно
1018.2 997.1
09 23.08 ЮВ 5 н/о н/о +25.3 +20.4 74 +31 +31 очень
душно
1018.0 996.9
12 23.08 ЮВ 7 10 км 4/1 600 м
[Cu hum Ci fib]
+24.2 +20.8 81 +30 +30 очень
душно
1018.9 997.8 +30.0
15 23.08 В 5 н/о н/о +23.8 +20.3 81 +29 +29 душно 1019.1 998.0

 

Местоположение метеостанции Роти (Индонезия): широта -10.73 долгота 123.07 высота над уровнем моря 1 м.

В архиве по умолчанию представлена погода на Роти за последнюю неделю. Архивные данные за месяц целиком и за предыдущие месяцы, начиная с января 2011 года, Вы можете получить, выбрав интересующий диапазон дат из раскрывающегося списка и нажав кнопку "Ввод!".


*Определитесь, кто Вы:
робот инопланетянин человек

Внимание! Время в таблицах - всемирное. Для получения местного времени необходимо прибавить поправку, которая равна 8 ч.

Смотрите также архив погоды в соседних городах и на ближайших метеорологических станциях:

Погода в Купанге (Индонезия) (90 км)
Погода в Сабу (Индонезия) (138 км)
Погода в Маумере (Индонезия) (250 км)
Погода в Ларантуке (Индонезия) (274 км)
Погода в Аэропорту Умбу Механг Кунда (Индонезия) (322 км)
Погода на Алоре (Индонезия) (324 км)
Погода в Рутенге (Индонезия) (370 км)
Погода на Острове Брауз (Западная Австралия, Австралия) (380 км)
Погода на Острове Троутон (Западная Австралия, Австралия) (474 км)
Погода в Трускотте (Западная Австралия, Австралия) (518 км)

Пояснения к столбцам:

Ветер - указаны скорость ветра в м/с - средняя за 10 мин, порывы в срок и между сроками (в фигурных скобках) и направление, откуда дует ветер: С - северный, СВ - северо-восточный, В - восточный, ЮВ - юго-восточный, Ю - южный, ЮЗ - юго-западный, З - западный, СЗ - северо-западный.
Видимость - горизонтальная дальность видимости в метрах или километрах. При видимости от 1 до 10 км при отсутствии осадков обычно наблюдается дымка, при ухудшении видимости до 1 км и менее - туман. В сухую погоду видимость может ухудшаться дымом, пылью или мглою.
Явления - указаны атмосферные явления, наблюдавшиеся в срок или в последний час перед сроком; фигурными скобками обозначены явления, наблюдавшиеся между сроками (за 1-3 часа до срока); квадратными скобками обозначены град или гололедные отложения с указанием их диаметра в мм.
Облачность - указаны через наклонную черту общая и нижняя облачность в баллах и высота нижней границы облаков в метрах; квадратными скобками обозначены формы облаков: Ci - перистые, Cs - перисто-слоистые, Cc - перисто-кучевые, Ac - высококучевые, As - высокослоистые, Sc - слоисто-кучевые, Ns - слоисто-дождевые, Cu - кучевые, Cb - кучево-дождевые. Подробнее классификацию облаков см. в Атласе облаков (PDF).
T - Температура воздуха - температура, измеренная на высоте 2 м над землей.
Td - Температура точки росы - температура, при понижении до которой содержащийся в воздухе водяной пар достигнет насыщения.
f - Относительная влажность воздуха - влажноcть воздуха, измеренная на высоте 2 м над землей.
Te - Эффективная температура - температура, которую ощущает одетый по сезону человек в тени. Характеристика душности погоды. При расчете учитывается влияние влажности воздуха и скорости ветра на теплоощущения человека.
Tes - Эффективная температура на солнце - температура, которую ощущает человек, с поправкой на солнечный нагрев. Характеристика знойности погоды. Зависит от высоты солнца над горизонтом, облачности и скорости ветра. Ночью, в пасмурную погоду, а также при ветре 12 м/с и более поправка равна нулю.
P - Атмосферное давление - приведенное к уровню моря атмосферное давление.
Po - Атмосферное давление - измеренное на уровне метеостанции атмосферное давление.
Tmin - Минимальная температура - минимум температуры воздуха на высоте 2 м над землей.
Tmax - Максимальная температура - максимум температуры воздуха на высоте 2 м над землей.
R - Количество осадков - Количество выпавших осадков за период времени, мм. При наведении курсора мыши на число - период времени, за который выпало указанное количество осадков.
R24 - Количество осадков - Количество выпавших осадков за 24 часа, мм.
S - Снежный покров - Высота снежного покрова, см. При наведении курсора мыши на число - состояние снежного покрова и степень покрытия местности в баллах.